This is the latest recevied weather packets stored in our database for station/object KW4UJ. If no packets are shown the sender has not sent any weather packets the latest 10 day(s).
| Time | Temp. | Humidity | Pressure | Rain* | Wind** | Luminosity | Snow |
|---|---|---|---|---|---|---|---|
| 1788129783 | 27.22° C | 77% | 1018.9 hPa | 0 mm | - | 10 W/m² | - |
| 1788129480 | 27.78° C | 76% | 1019 hPa | 0 mm | - | 9 W/m² | - |
| 1788129176 | 27.78° C | 75% | 1019.1 hPa | 0 mm | - | 10 W/m² | - |
| 1788128875 | 28.33° C | 74% | 1018.9 hPa | 0 mm | - | 12 W/m² | - |
| 1788128571 | 28.33° C | 73% | 1018.8 hPa | 0 mm | - | 15 W/m² | - |
| 1788128266 | 28.89° C | 72% | 1018.7 hPa | 0 mm | - | 21 W/m² | - |
| 1788127964 | 29.44° C | 71% | 1018.5 hPa | 0 mm | - | 38 W/m² | - |
| 1788127664 | 29.44° C | 70% | 1018.4 hPa | 0 mm | - | 79 W/m² | - |
| 1788127363 | 29.44° C | 69% | 1018.6 hPa | 0 mm | - | 155 W/m² | - |
| 1788127062 | 29.44° C | 68% | 1018.5 hPa | 0 mm | - | 106 W/m² | - |
| 1788126756 | 29.44° C | 69% | 1018.2 hPa | 0 mm | - | 170 W/m² | - |
| 1788126452 | 28.89° C | 69% | 1018.4 hPa | 0 mm | - | 196 W/m² | - |
| 1788126151 | 28.89° C | 70% | 1018.3 hPa | 0 mm | - | 78 W/m² | - |
| 1788125851 | 28.89° C | 69% | 1018.4 hPa | 0 mm | - | 67 W/m² | - |
| 1788125546 | 28.89° C | 69% | 1018.3 hPa | 0 mm | - | 55 W/m² | - |
| 1788125242 | 29.44° C | 69% | 1018.4 hPa | 0 mm | - | 73 W/m² | - |
| 1788124938 | 29.44° C | 68% | 1018.4 hPa | 0 mm | - | 120 W/m² | - |
| 1788124638 | 29.44° C | 68% | 1018.3 hPa | 0 mm | - | 142 W/m² | - |
| 1788124337 | 29.44° C | 69% | 1018.5 hPa | 0 mm | - | 119 W/m² | - |
| 1788124048 | 29.44° C | 68% | 1018.4 hPa | 0 mm | - | 143 W/m² | - |
| 1788123732 | 29.44° C | 69% | 1018.4 hPa | 0 mm | - | 139 W/m² | - |
| 1788123429 | 29.44° C | 69% | 1018.6 hPa | 0 mm | - | 124 W/m² | - |
| 1788123125 | 29.44° C | 68% | 1018.4 hPa | 0 mm | - | 143 W/m² | - |
| 1788122824 | 28.89° C | 69% | 1018.4 hPa | 0 mm | - | 96 W/m² | - |
| 1788122523 | 29.44° C | 68% | 1018.4 hPa | 0 mm | - | 73 W/m² | - |
* Rain latest hour (hover to see other rain measurements)
** Current wind speed in m/s (hover to see current wind gust speed)